Tracking 27107 objects as of 20-Mar-2023
HD Live streaming from Space Station
objects crossing your sky now

SL-16 DEB

Track SL-16 DEB now!
10-day predictions


NORAD ID: 22329
Int'l Code: 1992-093S
Perigee: 592.7 km
Apogee: 685.4 km
Inclination: 70.9 °
Period: 97.4 minutes
Semi major axis: 7010 km
RCS: 0.0951 m2 (small)
Launch date: December 25, 1992
Source: Commonwealth of Independent States (former USSR) (CIS)
Launch site: TYURATAM MISSILE AND SPACE COMPLEX (TTMTR)

Note: This is SATELLITE DEBRIS
Your satellite tracking list
Your tracking list is empty




NASA's NSSDC Master Catalog

Two Line Element Set (TLE):
1 22329U 92093S   23078.89578135  .00008458  00000-0  11053-2 0  9994
2 22329  70.8984 150.2583 0066136  46.9953 313.6717 14.79181720585149
Source of the keplerian elements: AFSPC